owner,sensor,date,latitude,longitude,vertical_datum,wind_speed,wind_to_direction,wind_speed_of_gust,qcFlag 
COMPS,ioos:station:USF.COMPS:ARP:1,2016-08-01T00:00:00Z,28.4330,-82.6670,10.0,1.79,262.14,2.74,'1111122,1111122,1111122' 
COMPS,ioos:station:USF.COMPS:ARP:1,2016-08-01T00:06:00Z,28.4330,-82.6670,10.0,1.83,266.74,2.45,'1111122,1111122,1111122' 
COMPS,ioos:station:USF.COMPS:ARP:1,2016-08-01T00:12:00Z,28.4330,-82.6670,10.0,1.27,265.11,2.35,'1111122,1111122,1111122' 
COMPS,ioos:station:USF.COMPS:ARP:1,2016-08-01T00:18:00Z,28.4330,-82.6670,10.0,0.42,262.13,1.07,'1111122,1111122,1111122' 
COMPS,ioos:station:USF.COMPS:ARP:1,2016-08-01T00:24:00Z,28.4330,-82.6670,10.0,0.83,293.01,1.66,'1111122,1111122,1111122' 
COMPS,ioos:station:USF.COMPS:ARP:1,2016-08-01T00:30:00Z,28.4330,-82.6670,10.0,2.3,270.27,3.62,'1111122,1111122,1111122' 
COMPS,ioos:station:USF.COMPS:ARP:1,2016-08-01T00:36:00Z,28.4330,-82.6670,10.0,1.23,258.16,2.25,'1111122,1111122,1111122' 
COMPS,ioos:station:USF.COMPS:ARP:1,2016-08-01T00:42:00Z,28.4330,-82.6670,10.0,2.42,277.39,4.5,'1111122,1111122,1111122' 
COMPS,ioos:station:USF.COMPS:ARP:1,2016-08-01T00:48:00Z,28.4330,-82.6670,10.0,3.28,283.68,5.09,'1111122,1111122,1111122' 
COMPS,ioos:station:USF.COMPS:ARP:1,2016-08-01T00:54:00Z,28.4330,-82.6670,10.0,4.12,301.53,5.68,'1111122,1111122,1111122' 
COMPS,ioos:station:USF.COMPS:ARP:1,2016-08-01T01:00:00Z,28.4330,-82.6670,10.0,3.39,303.11,4.5,'1111122,1111122,1111122' 
COMPS,ioos:station:USF.COMPS:ARP:1,2016-08-01T01:06:00Z,28.4330,-82.6670,10.0,4.05,305.12,5.29,'1111122,1111122,1111122' 
COMPS,ioos:station:USF.COMPS:ARP:1,2016-08-01T01:12:00Z,28.4330,-82.6670,10.0,3.21,306.32,4.31,'1111122,1111122,1111122' 
COMPS,ioos:station:USF.COMPS:ARP:1,2016-08-01T01:18:00Z,28.4330,-82.6670,10.0,1.01,9.74,2.54,'1111122,1111122,1111122' 
COMPS,ioos:station:USF.COMPS:ARP:1,2016-08-01T01:24:00Z,28.4330,-82.6670,10.0,1.15,139.07,1.76,'1111122,1111122,1111122' 
COMPS,ioos:station:USF.COMPS:ARP:1,2016-08-01T01:30:00Z,28.4330,-82.6670,10.0,1.09,139.24,1.86,'1111122,1111122,1111122' 
COMPS,ioos:station:USF.COMPS:ARP:1,2016-08-01T01:36:00Z,28.4330,-82.6670,10.0,1.07,128.28,2.05,'1111122,1111122,1111122' 
COMPS,ioos:station:USF.COMPS:ARP:1,2016-08-01T01:42:00Z,28.4330,-82.6670,10.0,1.64,147.61,4.5,'1111122,1111122,1111122' 
COMPS,ioos:station:USF.COMPS:ARP:1,2016-08-01T01:48:00Z,28.4330,-82.6670,10.0,1.94,160.83,4.41,'1111122,1111122,1111122' 
COMPS,ioos:station:USF.COMPS:ARP:1,2016-08-01T01:54:00Z,28.4330,-82.6670,10.0,2.02,166.0,3.72,'1111122,1111122,1111122' 
COMPS,ioos:station:USF.COMPS:ARP:1,2016-08-01T02:00:00Z,28.4330,-82.6670,10.0,2.12,172.13,4.01,'1111122,1111122,1111122' 
COMPS,ioos:station:USF.COMPS:ARP:1,2016-08-01T02:06:00Z,28.4330,-82.6670,10.0,1.6,183.54,4.01,'1111122,1111122,1111122' 
COMPS,ioos:station:USF.COMPS:ARP:1,2016-08-01T02:12:00Z,28.4330,-82.6670,10.0,2.43,186.42,5.68,'1111122,1111122,1111122' 
COMPS,ioos:station:USF.COMPS:ARP:1,2016-08-01T02:18:00Z,28.4330,-82.6670,10.0,2.15,190.3,4.41,'1111122,1111122,1111122' 
COMPS,ioos:station:USF.COMPS:ARP:1,2016-08-01T02:24:00Z,28.4330,-82.6670,10.0,1.89,181.07,4.8,'1111122,1111122,1111122' 
COMPS,ioos:station:USF.COMPS:ARP:1,2016-08-01T02:30:00Z,28.4330,-82.6670,10.0,2.29,177.88,5.19,'1111122,1111122,1111122' 
COMPS,ioos:station:USF.COMPS:ARP:1,2016-08-01T02:36:00Z,28.4330,-82.6670,10.0,2.74,178.62,5.29,'1111122,1111122,1111122' 
COMPS,ioos:station:USF.COMPS:ARP:1,2016-08-01T02:42:00Z,28.4330,-82.6670,10.0,1.8,159.96,4.9,'1111122,1111122,1111122' 
COMPS,ioos:station:USF.COMPS:ARP:1,2016-08-01T02:48:00Z,28.4330,-82.6670,10.0,2.05,160.06,4.41,'1111122,1111122,1111122' 
COMPS,ioos:station:USF.COMPS:ARP:1,2016-08-01T02:54:00Z,28.4330,-82.6670,10.0,1.23,141.46,2.74,'1111122,1111122,1111122' 
COMPS,ioos:station:USF.COMPS:ARP:1,2016-08-01T03:00:00Z,28.4330,-82.6670,10.0,1.19,194.42,2.45,'1111122,1111122,1111122' 
COMPS,ioos:station:USF.COMPS:ARP:1,2016-08-01T03:06:00Z,28.4330,-82.6670,10.0,0.54,197.61,1.46,'1111122,1111122,1111122' 
COMPS,ioos:station:USF.COMPS:ARP:1,2016-08-01T03:12:00Z,28.4330,-82.6670,10.0,0.68,189.76,1.17,'1111122,1111122,1111122' 
COMPS,ioos:station:USF.COMPS:ARP:1,2016-08-01T03:18:00Z,28.4330,-82.6670,10.0,1.11,277.8,1.66,'1111122,1111122,1111122' 
COMPS,ioos:station:USF.COMPS:ARP:1,2016-08-01T03:24:00Z,28.4330,-82.6670,10.0,0.78,214.5,1.17,'1111122,1111122,1111122' 
COMPS,ioos:station:USF.COMPS:ARP:1,2016-08-01T03:30:00Z,28.4330,-82.6670,10.0,0.4,236.19,1.56,'1111122,1111122,1111122' 
COMPS,ioos:station:USF.COMPS:ARP:1,2016-08-01T03:36:00Z,28.4330,-82.6670,10.0,0.62,213.99,1.56,'1111122,1111122,1111122' 
COMPS,ioos:station:USF.COMPS:ARP:1,2016-08-01T03:42:00Z,28.4330,-82.6670,10.0,0.4,274.48,0.97,'1111122,1111122,1111122' 
COMPS,ioos:station:USF.COMPS:ARP:1,2016-08-01T03:48:00Z,28.4330,-82.6670,10.0,0.44,206.0,1.17,'1111122,1111122,1111122' 
COMPS,ioos:station:USF.COMPS:ARP:1,2016-08-01T03:54:00Z,28.4330,-82.6670,10.0,0.86,164.87,1.46,'1111122,1111122,1111122' 
COMPS,ioos:station:USF.COMPS:ARP:1,2016-08-01T04:00:00Z,28.4330,-82.6670,10.0,0.94,184.99,2.25,'1111122,1111122,1111122' 
COMPS,ioos:station:USF.COMPS:ARP:1,2016-08-01T04:06:00Z,28.4330,-82.6670,10.0,0.96,150.98,2.05,'1111122,1111122,1111122' 
COMPS,ioos:station:USF.COMPS:ARP:1,2016-08-01T04:12:00Z,28.4330,-82.6670,10.0,0.42,163.1,1.86,'1111122,1111122,1111122' 
COMPS,ioos:station:USF.COMPS:ARP:1,2016-08-01T04:18:00Z,28.4330,-82.6670,10.0,0.63,126.06,1.66,'1111122,1111122,1111122' 
COMPS,ioos:station:USF.COMPS:ARP:1,2016-08-01T04:24:00Z,28.4330,-82.6670,10.0,0.66,126.9,1.37,'1111122,1111122,1111122' 
COMPS,ioos:station:USF.COMPS:ARP:1,2016-08-01T04:30:00Z,28.4330,-82.6670,10.0,0.85,116.8,1.76,'1111122,1111122,1111122' 
COMPS,ioos:station:USF.COMPS:ARP:1,2016-08-01T04:36:00Z,28.4330,-82.6670,10.0,1.22,109.79,2.05,'1111122,1111122,1111122' 
COMPS,ioos:station:USF.COMPS:ARP:1,2016-08-01T04:42:00Z,28.4330,-82.6670,10.0,1.11,116.45,1.86,'1111122,1111122,1111122' 
COMPS,ioos:station:USF.COMPS:ARP:1,2016-08-01T04:48:00Z,28.4330,-82.6670,10.0,0.86,115.33,1.66,'1111122,1111122,1111122' 
COMPS,ioos:station:USF.COMPS:ARP:1,2016-08-01T04:54:00Z,28.4330,-82.6670,10.0,1.43,110.23,2.05,'1111122,1111122,1111122' 
COMPS,ioos:station:USF.COMPS:ARP:1,2016-08-01T05:00:00Z,28.4330,-82.6670,10.0,1.32,118.99,2.25,'1111122,1111122,1111122' 
COMPS,ioos:station:USF.COMPS:ARP:1,2016-08-01T05:06:00Z,28.4330,-82.6670,10.0,1.62,119.53,2.45,'1111122,1111122,1111122' 
COMPS,ioos:station:USF.COMPS:ARP:1,2016-08-01T05:12:00Z,28.4330,-82.6670,10.0,1.2,121.06,2.25,'1111122,1111122,1111122' 
COMPS,ioos:station:USF.COMPS:ARP:1,2016-08-01T05:18:00Z,28.4330,-82.6670,10.0,1.12,120.77,1.86,'1111122,1111122,1111122' 
COMPS,ioos:station:USF.COMPS:ARP:1,2016-08-01T05:24:00Z,28.4330,-82.6670,10.0,1.08,125.77,2.05,'1111122,1111122,1111122' 
COMPS,ioos:station:USF.COMPS:ARP:1,2016-08-01T05:30:00Z,28.4330,-82.6670,10.0,1.45,122.22,2.93,'1111122,1111122,1111122' 
COMPS,ioos:station:USF.COMPS:ARP:1,2016-08-01T05:36:00Z,28.4330,-82.6670,10.0,1.36,125.17,2.45,'1111122,1111122,1111122' 
COMPS,ioos:station:USF.COMPS:ARP:1,2016-08-01T05:42:00Z,28.4330,-82.6670,10.0,1.07,126.22,1.95,'1111122,1111122,1111122' 
COMPS,ioos:station:USF.COMPS:ARP:1,2016-08-01T05:48:00Z,28.4330,-82.6670,10.0,1.03,127.87,2.25,'1111122,1111122,1111122' 
COMPS,ioos:station:USF.COMPS:ARP:1,2016-08-01T05:54:00Z,28.4330,-82.6670,10.0,1.23,105.19,2.35,'1111122,1111122,1111122' 
COMPS,ioos:station:USF.COMPS:ARP:1,2016-08-01T06:00:00Z,28.4330,-82.6670,10.0,1.17,102.93,1.76,'1111122,1111122,1111122' 
COMPS,ioos:station:USF.COMPS:ARP:1,2016-08-01T06:06:00Z,28.4330,-82.6670,10.0,1.18,100.44,1.56,'1111122,1111122,1111122' 
COMPS,ioos:station:USF.COMPS:ARP:1,2016-08-01T06:12:00Z,28.4330,-82.6670,10.0,1.34,92.28,2.05,'1111122,1111122,1111122' 
COMPS,ioos:station:USF.COMPS:ARP:1,2016-08-01T06:18:00Z,28.4330,-82.6670,10.0,1.03,91.63,1.56,'1111122,1111122,1111122' 
COMPS,ioos:station:USF.COMPS:ARP:1,2016-08-01T06:24:00Z,28.4330,-82.6670,10.0,0.89,71.95,1.27,'1111122,1111122,1111122' 
COMPS,ioos:station:USF.COMPS:ARP:1,2016-08-01T06:30:00Z,28.4330,-82.6670,10.0,1.16,87.15,1.46,'1111122,1111122,1111122' 
COMPS,ioos:station:USF.COMPS:ARP:1,2016-08-01T06:36:00Z,28.4330,-82.6670,10.0,1.3,103.18,1.66,'1111122,1111122,1111122' 
COMPS,ioos:station:USF.COMPS:ARP:1,2016-08-01T06:42:00Z,28.4330,-82.6670,10.0,1.55,108.12,2.15,'1111122,1111122,1111122' 
COMPS,ioos:station:USF.COMPS:ARP:1,2016-08-01T06:48:00Z,28.4330,-82.6670,10.0,1.39,98.28,1.86,'1111122,1111122,1111122' 
COMPS,ioos:station:USF.COMPS:ARP:1,2016-08-01T06:54:00Z,28.4330,-82.6670,10.0,1.11,79.26,1.95,'1111122,1111122,1111122' 
COMPS,ioos:station:USF.COMPS:ARP:1,2016-08-01T07:00:00Z,28.4330,-82.6670,10.0,1.49,82.99,2.15,'1111122,1111122,1111122' 
COMPS,ioos:station:USF.COMPS:ARP:1,2016-08-01T07:06:00Z,28.4330,-82.6670,10.0,1.35,85.05,2.15,'1111122,1111122,1111122' 
COMPS,ioos:station:USF.COMPS:ARP:1,2016-08-01T07:12:00Z,28.4330,-82.6670,10.0,1.51,97.72,2.05,'1111122,1111122,1111122' 
COMPS,ioos:station:USF.COMPS:ARP:1,2016-08-01T07:18:00Z,28.4330,-82.6670,10.0,1.26,96.0,1.76,'1111122,1111122,1111122' 
COMPS,ioos:station:USF.COMPS:ARP:1,2016-08-01T07:24:00Z,28.4330,-82.6670,10.0,1.21,103.02,1.76,'1111122,1111122,1111122' 
COMPS,ioos:station:USF.COMPS:ARP:1,2016-08-01T07:30:00Z,28.4330,-82.6670,10.0,1.33,100.24,1.66,'1111122,1111122,1111122' 
COMPS,ioos:station:USF.COMPS:ARP:1,2016-08-01T07:36:00Z,28.4330,-82.6670,10.0,0.96,96.38,1.27,'1111122,1111122,1111122' 
COMPS,ioos:station:USF.COMPS:ARP:1,2016-08-01T07:42:00Z,28.4330,-82.6670,10.0,1.0,100.1,1.37,'1111122,1111122,1111122' 
COMPS,ioos:station:USF.COMPS:ARP:1,2016-08-01T07:48:00Z,28.4330,-82.6670,10.0,1.23,105.01,1.56,'1111122,1111122,1111122' 
COMPS,ioos:station:USF.COMPS:ARP:1,2016-08-01T07:54:00Z,28.4330,-82.6670,10.0,1.1,124.17,1.66,'1111122,1111122,1111122' 
COMPS,ioos:station:USF.COMPS:ARP:1,2016-08-01T08:00:00Z,28.4330,-82.6670,10.0,1.11,124.24,1.86,'1111122,1111122,1111122' 
COMPS,ioos:station:USF.COMPS:ARP:1,2016-08-01T08:06:00Z,28.4330,-82.6670,10.0,1.28,116.55,2.25,'1111122,1111122,1111122' 
COMPS,ioos:station:USF.COMPS:ARP:1,2016-08-01T08:12:00Z,28.4330,-82.6670,10.0,1.52,114.47,3.13,'1111122,1111122,1111122' 
COMPS,ioos:station:USF.COMPS:ARP:1,2016-08-01T08:18:00Z,28.4330,-82.6670,10.0,1.12,121.93,2.15,'1111122,1111122,1111122' 
COMPS,ioos:station:USF.COMPS:ARP:1,2016-08-01T08:24:00Z,28.4330,-82.6670,10.0,1.76,116.14,4.7,'1111122,1111122,1111122' 
COMPS,ioos:station:USF.COMPS:ARP:1,2016-08-01T08:30:00Z,28.4330,-82.6670,10.0,1.76,116.28,2.84,'1111122,1111122,1111122' 
COMPS,ioos:station:USF.COMPS:ARP:1,2016-08-01T08:36:00Z,28.4330,-82.6670,10.0,1.95,113.84,3.33,'1111122,1111122,1111122' 
COMPS,ioos:station:USF.COMPS:ARP:1,2016-08-01T08:42:00Z,28.4330,-82.6670,10.0,2.15,109.04,3.03,'1111122,1111122,1111122' 
COMPS,ioos:station:USF.COMPS:ARP:1,2016-08-01T08:48:00Z,28.4330,-82.6670,10.0,2.24,110.77,3.33,'1111122,1111122,1111122' 
COMPS,ioos:station:USF.COMPS:ARP:1,2016-08-01T08:54:00Z,28.4330,-82.6670,10.0,2.43,109.66,3.72,'1111122,1111122,1111122' 
COMPS,ioos:station:USF.COMPS:ARP:1,2016-08-01T09:00:00Z,28.4330,-82.6670,10.0,2.49,111.68,3.72,'1111122,1111122,1111122' 
COMPS,ioos:station:USF.COMPS:ARP:1,2016-08-01T09:06:00Z,28.4330,-82.6670,10.0,2.18,104.68,3.23,'1111122,1111122,1111122' 
COMPS,ioos:station:USF.COMPS:ARP:1,2016-08-01T09:12:00Z,28.4330,-82.6670,10.0,2.0,103.82,3.42,'1111122,1111122,1111122' 
COMPS,ioos:station:USF.COMPS:ARP:1,2016-08-01T09:18:00Z,28.4330,-82.6670,10.0,1.99,114.42,3.03,'1111122,1111122,1111122' 
COMPS,ioos:station:USF.COMPS:ARP:1,2016-08-01T09:24:00Z,28.4330,-82.6670,10.0,1.96,107.39,2.93,'1111122,1111122,1111122' 
COMPS,ioos:station:USF.COMPS:ARP:1,2016-08-01T09:30:00Z,28.4330,-82.6670,10.0,2.03,112.3,3.52,'1111122,1111122,1111122' 
COMPS,ioos:station:USF.COMPS:ARP:1,2016-08-01T09:36:00Z,28.4330,-82.6670,10.0,2.28,114.4,3.52,'1111122,1111122,1111122' 
COMPS,ioos:station:USF.COMPS:ARP:1,2016-08-01T09:42:00Z,28.4330,-82.6670,10.0,2.1,107.27,3.23,'1111122,1111122,1111122' 
COMPS,ioos:station:USF.COMPS:ARP:1,2016-08-01T09:48:00Z,28.4330,-82.6670,10.0,1.89,113.28,3.42,'1111122,1111122,1111122' 
COMPS,ioos:station:USF.COMPS:ARP:1,2016-08-01T09:54:00Z,28.4330,-82.6670,10.0,1.99,109.24,2.93,'1111122,1111122,1111122' 
COMPS,ioos:station:USF.COMPS:ARP:1,2016-08-01T10:00:00Z,28.4330,-82.6670,10.0,2.03,104.65,3.23,'1111122,1111122,1111122' 
COMPS,ioos:station:USF.COMPS:ARP:1,2016-08-01T10:06:00Z,28.4330,-82.6670,10.0,1.98,107.31,2.74,'1111122,1111122,1111122' 
COMPS,ioos:station:USF.COMPS:ARP:1,2016-08-01T10:12:00Z,28.4330,-82.6670,10.0,1.98,103.01,3.33,'1111122,1111122,1111122' 
COMPS,ioos:station:USF.COMPS:ARP:1,2016-08-01T10:18:00Z,28.4330,-82.6670,10.0,1.74,99.99,2.54,'1111122,1111122,1111122' 
COMPS,ioos:station:USF.COMPS:ARP:1,2016-08-01T10:24:00Z,28.4330,-82.6670,10.0,1.98,103.09,2.93,'1111122,1111122,1111122' 
COMPS,ioos:station:USF.COMPS:ARP:1,2016-08-01T10:30:00Z,28.4330,-82.6670,10.0,1.59,102.71,2.54,'1111122,1111122,1111122' 
COMPS,ioos:station:USF.COMPS:ARP:1,2016-08-01T10:36:00Z,28.4330,-82.6670,10.0,1.9,105.06,3.03,'1111122,1111122,1111122' 
COMPS,ioos:station:USF.COMPS:ARP:1,2016-08-01T10:42:00Z,28.4330,-82.6670,10.0,2.12,110.3,3.03,'1111122,1111122,1111122' 
COMPS,ioos:station:USF.COMPS:ARP:1,2016-08-01T10:48:00Z,28.4330,-82.6670,10.0,2.25,103.55,3.42,'1111122,1111122,1111122' 
COMPS,ioos:station:USF.COMPS:ARP:1,2016-08-01T10:54:00Z,28.4330,-82.6670,10.0,2.04,104.94,2.74,'1111122,1111122,1111122' 
COMPS,ioos:station:USF.COMPS:ARP:1,2016-08-01T11:00:00Z,28.4330,-82.6670,10.0,1.66,107.63,2.93,'1111122,1111122,1111122' 
COMPS,ioos:station:USF.COMPS:ARP:1,2016-08-01T11:06:00Z,28.4330,-82.6670,10.0,1.83,111.2,2.93,'1111122,1111122,1111122' 
COMPS,ioos:station:USF.COMPS:ARP:1,2016-08-01T11:12:00Z,28.4330,-82.6670,10.0,1.72,103.21,2.64,'1111122,1111122,1111122' 
COMPS,ioos:station:USF.COMPS:ARP:1,2016-08-01T11:18:00Z,28.4330,-82.6670,10.0,1.78,106.54,2.64,'1111122,1111122,1111122' 
COMPS,ioos:station:USF.COMPS:ARP:1,2016-08-01T11:24:00Z,28.4330,-82.6670,10.0,1.62,109.82,2.35,'1111122,1111122,1111122' 
COMPS,ioos:station:USF.COMPS:ARP:1,2016-08-01T11:30:00Z,28.4330,-82.6670,10.0,1.57,103.11,2.35,'1111122,1111122,1111122' 
COMPS,ioos:station:USF.COMPS:ARP:1,2016-08-01T11:36:00Z,28.4330,-82.6670,10.0,1.95,109.51,2.93,'1111122,1111122,1111122' 
COMPS,ioos:station:USF.COMPS:ARP:1,2016-08-01T11:42:00Z,28.4330,-82.6670,10.0,1.92,102.42,4.01,'1111122,1111122,1111122' 
COMPS,ioos:station:USF.COMPS:ARP:1,2016-08-01T11:48:00Z,28.4330,-82.6670,10.0,1.66,104.87,2.84,'1111122,1111122,1111122' 
COMPS,ioos:station:USF.COMPS:ARP:1,2016-08-01T11:54:00Z,28.4330,-82.6670,10.0,1.95,105.87,2.64,'1111122,1111122,1111122' 
COMPS,ioos:station:USF.COMPS:ARP:1,2016-08-01T12:00:00Z,28.4330,-82.6670,10.0,1.83,102.39,3.03,'1111122,1111122,1111122' 
COMPS,ioos:station:USF.COMPS:ARP:1,2016-08-01T12:06:00Z,28.4330,-82.6670,10.0,1.73,112.55,3.03,'1111122,1111122,1111122' 
COMPS,ioos:station:USF.COMPS:ARP:1,2016-08-01T12:12:00Z,28.4330,-82.6670,10.0,1.65,116.09,2.84,'1111122,1111122,1111122' 
COMPS,ioos:station:USF.COMPS:ARP:1,2016-08-01T12:18:00Z,28.4330,-82.6670,10.0,1.7,115.43,2.64,'1111122,1111122,1111122' 
COMPS,ioos:station:USF.COMPS:ARP:1,2016-08-01T12:24:00Z,28.4330,-82.6670,10.0,1.51,118.77,4.01,'1111122,1111122,1111122' 
COMPS,ioos:station:USF.COMPS:ARP:1,2016-08-01T12:30:00Z,28.4330,-82.6670,10.0,1.0,121.9,1.95,'1111122,1111122,1111122' 
COMPS,ioos:station:USF.COMPS:ARP:1,2016-08-01T12:36:00Z,28.4330,-82.6670,10.0,1.74,114.98,3.03,'1111122,1111122,1111122' 
COMPS,ioos:station:USF.COMPS:ARP:1,2016-08-01T12:42:00Z,28.4330,-82.6670,10.0,1.67,125.46,3.13,'1111122,1111122,1111122' 
COMPS,ioos:station:USF.COMPS:ARP:1,2016-08-01T12:48:00Z,28.4330,-82.6670,10.0,1.26,122.31,2.25,'1111122,1111122,1111122' 
COMPS,ioos:station:USF.COMPS:ARP:1,2016-08-01T12:54:00Z,28.4330,-82.6670,10.0,1.36,123.01,2.35,'1111122,1111122,1111122' 
COMPS,ioos:station:USF.COMPS:ARP:1,2016-08-01T13:00:00Z,28.4330,-82.6670,10.0,0.98,127.23,1.95,'1111122,1111122,1111122' 
COMPS,ioos:station:USF.COMPS:ARP:1,2016-08-01T13:06:00Z,28.4330,-82.6670,10.0,0.89,131.78,2.54,'1111122,1111122,1111122' 
COMPS,ioos:station:USF.COMPS:ARP:1,2016-08-01T13:12:00Z,28.4330,-82.6670,10.0,1.69,140.9,2.93,'1111122,1111122,1111122' 
COMPS,ioos:station:USF.COMPS:ARP:1,2016-08-01T13:18:00Z,28.4330,-82.6670,10.0,1.18,128.01,2.15,'1111122,1111122,1111122' 
COMPS,ioos:station:USF.COMPS:ARP:1,2016-08-01T13:24:00Z,28.4330,-82.6670,10.0,1.73,136.3,2.93,'1111122,1111122,1111122' 
COMPS,ioos:station:USF.COMPS:ARP:1,2016-08-01T13:30:00Z,28.4330,-82.6670,10.0,1.71,142.87,2.84,'1111122,1111122,1111122' 
COMPS,ioos:station:USF.COMPS:ARP:1,2016-08-01T13:36:00Z,28.4330,-82.6670,10.0,1.89,126.23,3.13,'1111122,1111122,1111122' 
COMPS,ioos:station:USF.COMPS:ARP:1,2016-08-01T13:42:00Z,28.4330,-82.6670,10.0,1.45,128.54,2.93,'1111122,1111122,1111122' 
COMPS,ioos:station:USF.COMPS:ARP:1,2016-08-01T13:48:00Z,28.4330,-82.6670,10.0,1.38,140.7,2.64,'1111122,1111122,1111122' 
COMPS,ioos:station:USF.COMPS:ARP:1,2016-08-01T13:54:00Z,28.4330,-82.6670,10.0,1.61,133.0,2.84,'1111122,1111122,1111122' 
COMPS,ioos:station:USF.COMPS:ARP:1,2016-08-01T14:00:00Z,28.4330,-82.6670,10.0,1.19,152.6,2.35,'1111122,1111122,1111122' 
COMPS,ioos:station:USF.COMPS:ARP:1,2016-08-01T14:06:00Z,28.4330,-82.6670,10.0,1.95,119.47,3.82,'1111122,1111122,1111122' 
COMPS,ioos:station:USF.COMPS:ARP:1,2016-08-01T14:12:00Z,28.4330,-82.6670,10.0,1.58,129.28,2.64,'1111122,1111122,1111122' 
COMPS,ioos:station:USF.COMPS:ARP:1,2016-08-01T14:18:00Z,28.4330,-82.6670,10.0,1.91,122.11,3.62,'1111122,1111122,1111122' 
COMPS,ioos:station:USF.COMPS:ARP:1,2016-08-01T14:24:00Z,28.4330,-82.6670,10.0,2.24,116.07,3.42,'1111122,1111122,1111122' 
COMPS,ioos:station:USF.COMPS:ARP:1,2016-08-01T14:30:00Z,28.4330,-82.6670,10.0,2.14,122.52,3.42,'1111122,1111122,1111122' 
COMPS,ioos:station:USF.COMPS:ARP:1,2016-08-01T14:36:00Z,28.4330,-82.6670,10.0,2.23,123.55,3.52,'1111122,1111122,1111122' 
COMPS,ioos:station:USF.COMPS:ARP:1,2016-08-01T14:42:00Z,28.4330,-82.6670,10.0,2.01,126.93,4.31,'1111122,1111122,1111122' 
COMPS,ioos:station:USF.COMPS:ARP:1,2016-08-01T14:48:00Z,28.4330,-82.6670,10.0,1.7,133.91,2.64,'1111122,1111122,1111122' 
COMPS,ioos:station:USF.COMPS:ARP:1,2016-08-01T14:54:00Z,28.4330,-82.6670,10.0,1.72,122.82,3.42,'1111122,1111122,1111122' 
COMPS,ioos:station:USF.COMPS:ARP:1,2016-08-01T15:00:00Z,28.4330,-82.6670,10.0,1.48,124.56,3.62,'1111122,1111122,1111122' 
COMPS,ioos:station:USF.COMPS:ARP:1,2016-08-01T15:06:00Z,28.4330,-82.6670,10.0,1.86,114.7,3.42,'1111122,1111122,1111122' 
COMPS,ioos:station:USF.COMPS:ARP:1,2016-08-01T15:12:00Z,28.4330,-82.6670,10.0,1.95,138.99,3.72,'1111122,1111122,1111122' 
COMPS,ioos:station:USF.COMPS:ARP:1,2016-08-01T15:18:00Z,28.4330,-82.6670,10.0,1.41,133.48,4.21,'1111122,1111122,1111122' 
COMPS,ioos:station:USF.COMPS:ARP:1,2016-08-01T15:24:00Z,28.4330,-82.6670,10.0,1.59,115.9,3.13,'1111122,1111122,1111122' 
COMPS,ioos:station:USF.COMPS:ARP:1,2016-08-01T15:30:00Z,28.4330,-82.6670,10.0,2.23,197.86,3.91,'1111122,1111122,1111122' 
COMPS,ioos:station:USF.COMPS:ARP:1,2016-08-01T15:36:00Z,28.4330,-82.6670,10.0,1.24,198.68,2.45,'1111122,1111122,1111122' 
COMPS,ioos:station:USF.COMPS:ARP:1,2016-08-01T15:42:00Z,28.4330,-82.6670,10.0,1.75,175.52,3.13,'1111122,1111122,1111122' 
COMPS,ioos:station:USF.COMPS:ARP:1,2016-08-01T15:48:00Z,28.4330,-82.6670,10.0,1.24,209.06,2.64,'1111122,1111122,1111122' 
COMPS,ioos:station:USF.COMPS:ARP:1,2016-08-01T15:54:00Z,28.4330,-82.6670,10.0,1.2,198.9,2.54,'1111122,1111122,1111122' 
COMPS,ioos:station:USF.COMPS:ARP:1,2016-08-01T16:00:00Z,28.4330,-82.6670,10.0,0.98,187.41,2.84,'1111122,1111122,1111122' 
COMPS,ioos:station:USF.COMPS:ARP:1,2016-08-01T16:06:00Z,28.4330,-82.6670,10.0,1.08,170.9,2.84,'1111122,1111122,1111122' 
COMPS,ioos:station:USF.COMPS:ARP:1,2016-08-01T16:12:00Z,28.4330,-82.6670,10.0,0.66,202.9,2.25,'1111122,1111122,1111122' 
COMPS,ioos:station:USF.COMPS:ARP:1,2016-08-01T16:18:00Z,28.4330,-82.6670,10.0,0.85,78.22,1.95,'1111122,1111122,1111122' 
COMPS,ioos:station:USF.COMPS:ARP:1,2016-08-01T16:24:00Z,28.4330,-82.6670,10.0,0.96,277.41,1.86,'1111122,1111122,1111122' 
COMPS,ioos:station:USF.COMPS:ARP:1,2016-08-01T16:30:00Z,28.4330,-82.6670,10.0,1.41,51.59,2.64,'1111122,1111122,1111122' 
COMPS,ioos:station:USF.COMPS:ARP:1,2016-08-01T16:36:00Z,28.4330,-82.6670,10.0,1.99,264.22,3.82,'1111122,1111122,1111122' 
COMPS,ioos:station:USF.COMPS:ARP:1,2016-08-01T16:42:00Z,28.4330,-82.6670,10.0,1.65,266.89,3.13,'1111122,1111122,1111122' 
COMPS,ioos:station:USF.COMPS:ARP:1,2016-08-01T16:48:00Z,28.4330,-82.6670,10.0,2.68,296.6,3.91,'1111122,1111122,1111122' 
COMPS,ioos:station:USF.COMPS:ARP:1,2016-08-01T16:54:00Z,28.4330,-82.6670,10.0,2.68,306.99,3.91,'1111122,1111122,1111122' 
COMPS,ioos:station:USF.COMPS:ARP:1,2016-08-01T17:00:00Z,28.4330,-82.6670,10.0,2.95,306.09,3.52,'1111122,1111122,1111122' 
COMPS,ioos:station:USF.COMPS:ARP:1,2016-08-01T17:06:00Z,28.4330,-82.6670,10.0,2.79,303.66,3.33,'1111122,1111122,1111122' 
COMPS,ioos:station:USF.COMPS:ARP:1,2016-08-01T17:12:00Z,28.4330,-82.6670,10.0,2.87,307.13,3.72,'1111122,1111122,1111122' 
COMPS,ioos:station:USF.COMPS:ARP:1,2016-08-01T17:18:00Z,28.4330,-82.6670,10.0,3.11,305.28,3.62,'1111122,1111122,1111122' 
COMPS,ioos:station:USF.COMPS:ARP:1,2016-08-01T17:24:00Z,28.4330,-82.6670,10.0,2.76,306.45,3.33,'1111122,1111122,1111122' 
COMPS,ioos:station:USF.COMPS:ARP:1,2016-08-01T17:30:00Z,28.4330,-82.6670,10.0,2.7,296.4,3.42,'1111122,1111122,1111122' 
COMPS,ioos:station:USF.COMPS:ARP:1,2016-08-01T17:36:00Z,28.4330,-82.6670,10.0,2.29,291.28,2.74,'1111122,1111122,1111122' 
COMPS,ioos:station:USF.COMPS:ARP:1,2016-08-01T17:42:00Z,28.4330,-82.6670,10.0,2.66,306.07,3.23,'1111122,1111122,1111122' 
COMPS,ioos:station:USF.COMPS:ARP:1,2016-08-01T17:48:00Z,28.4330,-82.6670,10.0,3.08,300.66,3.62,'1111122,1111122,1111122' 
COMPS,ioos:station:USF.COMPS:ARP:1,2016-08-01T17:54:00Z,28.4330,-82.6670,10.0,2.96,303.21,3.42,'1111122,1111122,1111122' 
COMPS,ioos:station:USF.COMPS:ARP:1,2016-08-01T18:00:00Z,28.4330,-82.6670,10.0,3.11,304.0,3.82,'1111122,1111122,1111122' 
COMPS,ioos:station:USF.COMPS:ARP:1,2016-08-01T18:06:00Z,28.4330,-82.6670,10.0,3.19,298.29,3.72,'1111122,1111122,1111122' 
COMPS,ioos:station:USF.COMPS:ARP:1,2016-08-01T18:12:00Z,28.4330,-82.6670,10.0,2.99,298.97,3.52,'1111122,1111122,1111122' 
COMPS,ioos:station:USF.COMPS:ARP:1,2016-08-01T18:18:00Z,28.4330,-82.6670,10.0,3.29,303.35,4.01,'1111122,1111122,1111122' 
COMPS,ioos:station:USF.COMPS:ARP:1,2016-08-01T18:24:00Z,28.4330,-82.6670,10.0,3.05,299.84,3.82,'1111122,1111122,1111122' 
COMPS,ioos:station:USF.COMPS:ARP:1,2016-08-01T18:30:00Z,28.4330,-82.6670,10.0,3.31,304.24,4.21,'1111122,1111122,1111122' 
COMPS,ioos:station:USF.COMPS:ARP:1,2016-08-01T18:36:00Z,28.4330,-82.6670,10.0,3.62,300.38,4.5,'1111122,1111122,1111122' 
COMPS,ioos:station:USF.COMPS:ARP:1,2016-08-01T18:42:00Z,28.4330,-82.6670,10.0,3.48,305.59,4.41,'1111122,1111122,1111122' 
COMPS,ioos:station:USF.COMPS:ARP:1,2016-08-01T18:48:00Z,28.4330,-82.6670,10.0,3.28,301.22,4.21,'1111122,1111122,1111122' 
COMPS,ioos:station:USF.COMPS:ARP:1,2016-08-01T18:54:00Z,28.4330,-82.6670,10.0,3.51,299.69,4.31,'1111122,1111122,1111122' 
COMPS,ioos:station:USF.COMPS:ARP:1,2016-08-01T19:00:00Z,28.4330,-82.6670,10.0,3.74,304.55,4.41,'1111122,1111122,1111122' 
COMPS,ioos:station:USF.COMPS:ARP:1,2016-08-01T19:06:00Z,28.4330,-82.6670,10.0,3.79,302.71,4.9,'1111122,1111122,1111122' 
COMPS,ioos:station:USF.COMPS:ARP:1,2016-08-01T19:12:00Z,28.4330,-82.6670,10.0,3.88,301.93,4.7,'1111122,1111122,1111122' 
COMPS,ioos:station:USF.COMPS:ARP:1,2016-08-01T19:18:00Z,28.4330,-82.6670,10.0,3.89,295.04,5.09,'1111122,1111122,1111122' 
COMPS,ioos:station:USF.COMPS:ARP:1,2016-08-01T19:24:00Z,28.4330,-82.6670,10.0,3.76,292.23,4.7,'1111122,1111122,1111122' 
COMPS,ioos:station:USF.COMPS:ARP:1,2016-08-01T19:30:00Z,28.4330,-82.6670,10.0,4.16,288.65,5.48,'1111122,1111122,1111122' 